sat.trackr.live / text

‹ back to catalog

STARLINK-11744 [DTC]

NORAD 64380 · 2025-127L

PAYLOAD ACTIVE UNKNOWN

§ Identity

Operator
Country
US
Launch date
2025-06-13
Launch site
AFETR
Launch vehicle
Mass (kg)
RCS (m²)

Purposes: comms

External: N2YO · Heavens-Above · Gunter

§ Orbital elements

Epoch: 2026-09-20T12:37:51.918240Z

Period
91.66 min
Inclination
43.0006°
Eccentricity
0.0001368
Mean motion
15.71017208 rev/d
Perigee alt
355.1 km
Apogee alt
356.9 km
Semi-major
6,734.1 km
B*
1.2695e-3
RAAN
350.2555°
Arg perigee
241.8972°
Mean anomaly
118.1758°
Rev number
7,414

§ Raw data

STARLINK-11744 [DTC]1 64380U 25127L   26263.52629535  .00166999  00000+0  12695-2 0  99982 64380  43.0006 350.2555 0001368 241.8972 118.1758 15.71017208 74141

JSON: /api/v1/satellites/64380 · /tle

For live sub-satellite position, see the globe view (requires WebGL).

§ Visibility from observer

Set your observer location to see the next 7 days of passes ≥ 10°. The values pass through the URL so the page stays shareable.

No JS? Fill the form by hand. The geolocation button needs JavaScript.